This is the latest recevied weather packets stored in our database for station/object KK7RJD. If no packets are shown the sender has not sent any weather packets the latest 10 day(s).
| Time | Temp. | Humidity | Pressure | Rain* | Wind** | Luminosity | Snow |
|---|---|---|---|---|---|---|---|
| 1778278257 | 21.11° C | 33% | 1011.1 hPa | 0 mm | - | 629 W/m² | - |
| 1778277954 | 20.56° C | 36% | 1011 hPa | 0 mm | - | 650 W/m² | - |
| 1778277650 | 20.56° C | 34% | 1011.1 hPa | 0 mm | - | 663 W/m² | - |
| 1778277347 | 20.56° C | 33% | 1011.2 hPa | 0 mm | - | 562 W/m² | - |
| 1778277044 | 21.11° C | 33% | 1011.3 hPa | 0 mm | - | 690 W/m² | - |
| 1778276135 | 20° C | 34% | 1011.6 hPa | 0 mm | - | 667 W/m² | - |
| 1778275527 | 20.56° C | 34% | 1011.8 hPa | 0 mm | - | 698 W/m² | - |
| 1778275223 | 20° C | 34% | 1011.9 hPa | 0 mm | - | 693 W/m² | - |
| 1778274919 | 20° C | 35% | 1011.8 hPa | 0 mm | - | 799 W/m² | - |
| 1778274616 | 20° C | 36% | 1011.7 hPa | 0 mm | - | 697 W/m² | - |
| 1778273707 | 20° C | 36% | 1012.3 hPa | 0 mm | - | 561 W/m² | - |
| 1778273403 | 20.56° C | 35% | 1012.1 hPa | 0 mm | - | 726 W/m² | - |
| 1778272187 | 19.44° C | 37% | 1012.5 hPa | 0 mm | - | 863 W/m² | - |
| 1778271885 | 19.44° C | 37% | 1012.5 hPa | 0 mm | - | 827 W/m² | - |
| 1778271582 | 18.89° C | 39% | 1012.5 hPa | 0 mm | - | 889 W/m² | - |
| 1778271278 | 19.44° C | 37% | 1012.5 hPa | 0 mm | - | 863 W/m² | - |
| 1778270975 | 19.44° C | 38% | 1012.7 hPa | 0 mm | - | 890 W/m² | - |
| 1778270672 | 19.44° C | 36% | 1012.7 hPa | 0 mm | - | 875 W/m² | - |
| 1778270367 | 18.89° C | 40% | 1012.7 hPa | 0 mm | - | 878 W/m² | - |
| 1778270065 | 18.89° C | 38% | 1012.9 hPa | 0 mm | - | 790 W/m² | - |
| 1778269458 | 18.33° C | 39% | 1013.2 hPa | 0 mm | - | 939 W/m² | - |
| 1778269154 | 18.33° C | 40% | 1013.2 hPa | 0 mm | - | 740 W/m² | - |
| 1778268852 | 18.33° C | 42% | 1013.2 hPa | 0 mm | - | 389 W/m² | - |
| 1778268548 | 18.33° C | 42% | 1013.2 hPa | 0 mm | - | 655 W/m² | - |
| 1778268245 | 18.33° C | 47% | 1013.2 hPa | 0 mm | - | 979 W/m² | - |
* Rain latest hour (hover to see other rain measurements)
** Current wind speed in m/s (hover to see current wind gust speed)